Regional Weather Roundup
Issued by NWS

Home | Current Version | Previous Version | Graphics & Text | Print | Product List | Glossary On
Versions: 1 2 3 4 5 6 7 8 9 10 11 12 13 14 15 16 17 18 19 20 21 22 23 24 25 26 27 28 29 30 31 32 33 34 35 36 37 38 39 40 41 42 43 44 45 46 47 48 49 50
000
ASUS43 KIND 260459
RWRIN

WEATHER ROUNDUP FOR INDIANA
NATIONAL WEATHER SERVICE INDIANAPOLIS IN
100 AM EDT MON JUN 26 2017

NOTE: "FAIR" INDICATES FEW OR NO CLOUDS BELOW 12,000 FEET WITH NO
SIGNIFICANT WEATHER AND/OR OBSTRUCTIONS TO VISIBILITY.

* - STATION DOES NOT REPORT WEATHER SUCH AS PRECIPITATION OR FOG.

+ - STATION NOT QUALITY CONTROLLED BY THE NATIONAL WEATHER SERVICE.
    USE DATA WITH CAUTION...ESPECIALLY DEWPOINT AND RELATIVE
    HUMIDITY OBSERVATIONS.

INZ001>003-010>013-019-020-260600-
NORTHWEST INDIANA

CITY           SKY/WX    TMP DP  RH WIND       PRES   REMARKS
GARY /AIRPORT/ CLEAR     61  47  61 W9        30.12S
KNOX *+        PTCLDY    59  37  44 W8        30.10S
MONTICELLO +   CLEAR     58  49  71 W5        30.13R

$$

LMZ046-743>745-260600-
SOUTHERN LAKE MICHIGAN

STATION/POSITION TIME  TEMP    WIND        PRES    WAVE
                       AIR SEA DIR/SP/G            HT
                 (UTC) (F)     (DEG/KT/KT) (MB)    (FT)
BURNS HARBOR     0440   64     280/ 18/ 20 1019.3S
MICHIGAN CITY    0430   63     280/ 19/ 21   N/A
5NW MICH CITY    0450   64 66  300/ 17/ 23   N/A     5

$$

INZ004-005-014>016-021>024-260600-
NORTH CENTRAL INDIANA

CITY           SKY/WX    TMP DP  RH WIND       PRES   REMARKS
GOSHEN         CLOUDY    58  53  84 W5        30.08S
SOUTH BEND     MOCLDY    57  53  86 W7        30.10R

$$

INZ006>009-017-018-025>027-260600-
NORTHEAST INDIANA

CITY           SKY/WX    TMP DP  RH WIND       PRES   REMARKS
FORT WAYNE     PTCLDY    61  48  62 W9        30.09S
KENDALLVILLE + CLOUDY    57  53  86 CALM      30.08F

$$

INZ028-029-035-036-043>045-051>053-260600-
WEST CENTRAL INDIANA

CITY           SKY/WX    TMP DP  RH WIND       PRES   REMARKS
CRAWFORDSVL +  CLEAR     54  50  85 CALM      30.15S
GREENCASTLE +  CLEAR     59  46  63 CALM      30.16S
LAFAYETTE      CLEAR     54  51  90 CALM      30.13S
TERRE HAUTE    CLEAR     60  48  64 NW5       30.17R

$$

INZ030>032-037>040-046>048-054>057-064-065-260600-
CENTRAL INDIANA

CITY           SKY/WX    TMP DP  RH WIND       PRES   REMARKS
GREENWOOD *+   PTCLDY    60  48  64 W3        30.15S
INDIANAPOLIS   CLEAR     60  48  64 NW8       30.14S
-EAGLE CREEK   CLEAR     62  48  60 NW8       30.14R
KOKOMO +       CLEAR     60  50  69 W9        30.14R
MT COMFORT *+  CLEAR     57  48  72 W6        30.14S
SHELBYVILLE    CLEAR     62  47  57 NW7       30.14R

$$

INZ033-034-041-042-049-050-058-059-260600-
EAST CENTRAL INDIANA

CITY           SKY/WX    TMP DP  RH WIND       PRES   REMARKS
MUNCIE         CLEAR     60  49  66 W6        30.12S
RICHMOND +     PTCLDY    57  50  77 CALM      30.14S

$$

INZ060-061-067>069-081>083-085>088-260600-
SOUTHWEST INDIANA

CITY           SKY/WX    TMP DP  RH WIND       PRES   REMARKS
EVANSVILLE     CLEAR     66  48  52 N6        30.19R
HUNTINGBURG *+ CLEAR     63  51  65 W3        30.18R

$$

INZ062-063-066-070>080-084-089>092-260600-
SOUTH CENTRAL AND SOUTHEAST INDIANA

CITY           SKY/WX    TMP DP  RH WIND       PRES   REMARKS
BLOOMINGTON    CLEAR     56  49  77 CALM      30.16R
MADISON *+     CLEAR     59  55  88 CALM      30.17R
SEYMOUR +      CLEAR    N/A N/A N/A W3        30.15R

$$




USA.gov is the U.S. government's official web portal to all federal, state and local government web resources and services.